Location: *
(45.5667°S, 177.5167°W)
Time: 05:18:57
(UTC+00:00)

CZ-4B DEB - Pass Details

Date: 29 May 2022
Orbit: 841 x 860 km, 99.1° (Epoch: 24 June)

Event Time Altitude Azimuth Distance (km) Brightness Sun altitude
Exits shadow 06:59:37 75° 17° (NNE) 887 4.1 -27.7°
Drops below altitude 10° 07:04:41 10° 347° (NNW) 2,467 6.8 -28.6°
Sets 07:07:02 0° 346° (NNW) 3,393 7.5 -29.0°
